Location: �terpigny
(49.8910°N, 2.9249°E)
Time: 19:22:08
(UTC+00:00)

Meteor 2-10 Rocket - Pass Details

Date: 24 October 2021
Orbit: 733 x 885 km, 81.2° (Epoch: 07 December)

Event Time Altitude Azimuth Distance (km) Brightness Sun altitude
Rises 17:29:04 0° 157° (SSE) 3,393 6.7 -8.6°
Reaches altitude 10° 17:31:48 10° 147° (SSE) 2,440 5.9 -9.1°
Maximum altitude 17:36:26 28° 89° (E) 1,477 4.4 -9.8°
Drops below altitude 10° 17:40:56 10° 32° (NNE) 2,368 5.7 -10.5°
Sets 17:43:32 0° 21° (NNE) 3,277 6.5 -10.9°
